When you browse on this site, cookies collect data to enhance your experience and personalize the content and advertising you see.
Visit our Privacy Policy to learn more. By continuing to use the site, you agree to this use of cookies and data.
  • In United Kingdom
  • List of Countries
  • For 7 days
  • Water Temperature
  • Weather Map
  • Weather Widgets
  • user-avatar
    Login

    Hourly Weather Wiktoria

    Today, 17 November, Sunday

    Time Temperature Precipitation Wind Pressure Humidity
    00:00 +10°C° 0 mm 4 mps 752 mmHg 70%
    01:00 +8°C° 0 mm 4 mps 752 mmHg 74%
    02:00 +7°C° 0 mm 4 mps 752 mmHg 79%
    03:00 +6°C° 0 mm 4 mps 752 mmHg 84%
    04:00 +5°C° 0 mm 4 mps 751 mmHg 91%
    05:00 +7°C° 0 mm 4 mps 752 mmHg 83%
    06:00 +8°C° 0 mm 5 mps 752 mmHg 75%
    07:00 +10°C° 0 mm 5 mps 753 mmHg 67%
    08:00 +13°C° 0 mm 5 mps 753 mmHg 60%
    09:00 +15°C° 0 mm 5 mps 753 mmHg 53%
    10:00 +17°C° 0 mm 5 mps 752 mmHg 46%
    11:00 +19°C° 0 mm 5 mps 752 mmHg 42%
    12:00 +20°C° 0 mm 5 mps 752 mmHg 38%
    13:00 +22°C° 0 mm 5 mps 751 mmHg 34%
    14:00 +22°C° 0 mm 5 mps 751 mmHg 34%
    15:00 +22°C° 0 mm 5 mps 751 mmHg 34%
    16:00 +22°C° 0 mm 6 mps 750 mmHg 34%
    17:00 +20°C° 0 mm 5 mps 751 mmHg 38%
    18:00 +18°C° 0 mm 4 mps 751 mmHg 43%
    19:00 +15°C° 0 mm 4 mps 751 mmHg 47%
    20:00 +13°C° 0 mm 3 mps 752 mmHg 50%
    21:00 +12°C° 0 mm 3 mps 752 mmHg 53%
    22:00 +10°C° 0 mm 3 mps 752 mmHg 56%
    23:00 +10°C° 0 mm 3 mps 752 mmHg 62%

    Tomorrow, 18 November, Monday

    Time Temperature Precipitation Wind Pressure Humidity
    00:00 +9°C° 0 mm 2 mps 752 mmHg 68%
    01:00 +8°C° 0 mm 2 mps 751 mmHg 73%
    02:00 +8°C° 0 mm 2 mps 751 mmHg 75%
    03:00 +8°C° 0 mm 2 mps 751 mmHg 76%
    04:00 +8°C° 0 mm 1 mps 751 mmHg 77%
    05:00 +10°C° 0 mm 1 mps 751 mmHg 71%
    06:00 +12°C° 0 mm 1 mps 751 mmHg 64%
    07:00 +12°C° 0 mm 0 mps 751 mmHg 57%
    08:00 +16°C° 0 mm 1 mps 751 mmHg 51%
    09:00 +18°C° 0 mm 2 mps 751 mmHg 45%
    10:00 +21°C° 0 mm 3 mps 751 mmHg 39%
    11:00 +24°C° 0 mm 3 mps 750 mmHg 34%
    12:00 +26°C° 0 mm 4 mps 749 mmHg 30%
    13:00 +28°C° 0 mm 4 mps 749 mmHg 25%
    14:00 +29°C° 0 mm 4 mps 748 mmHg 24%
    15:00 +29°C° 0 mm 4 mps 748 mmHg 22%
    16:00 +30°C° 0 mm 4 mps 747 mmHg 21%
    17:00 +28°C° 0 mm 4 mps 747 mmHg 26%
    18:00 +25°C° 0 mm 3 mps 747 mmHg 31%
    19:00 +23°C° 0 mm 2 mps 747 mmHg 36%
    20:00 +20°C° 0 mm 2 mps 747 mmHg 40%
    21:00 +20°C° 0 mm 1 mps 747 mmHg 45%
    22:00 +18°C° 0 mm 1 mps 747 mmHg 49%
    23:00 +16°C° 0 mm 1 mps 747 mmHg 53%

    Day after tomorrow, 19 November, Tuesday

    Time Temperature Precipitation Wind Pressure Humidity
    00:00 +15°C° 0 mm 1 mps 747 mmHg 57%
    01:00 +13°C° 0 mm 0 mps 746 mmHg 61%
    02:00 +13°C° 0 mm 1 mps 746 mmHg 64%
    03:00 +13°C° 0 mm 1 mps 746 mmHg 67%
    04:00 +12°C° 0 mm 1 mps 746 mmHg 71%
    05:00 +14°C° 0 mm 1 mps 747 mmHg 66%
    06:00 +15°C° 0 mm 1 mps 747 mmHg 60%
    07:00 +18°C° 0 mm 1 mps 747 mmHg 55%
    08:00 +21°C° 0 mm 1 mps 747 mmHg 48%
    09:00 +23°C° 0 mm 2 mps 747 mmHg 41%
    10:00 +26°C° 0 mm 2 mps 747 mmHg 34%
    11:00 +27°C° 0 mm 3 mps 747 mmHg 31%
    12:00 +28°C° 0 mm 4 mps 746 mmHg 29%
    13:00 +30°C° 0 mm 5 mps 746 mmHg 26%
    14:00 +29°C° 0 mm 5 mps 746 mmHg 28%
    15:00 +29°C° 0 mm 6 mps 746 mmHg 30%
    16:00 +28°C° 0 mm 6 mps 746 mmHg 32%
    17:00 +26°C° 0 mm 5 mps 746 mmHg 37%
    18:00 +22°C° 0 mm 5 mps 747 mmHg 43%
    19:00 +20°C° 0 mm 4 mps 747 mmHg 49%
    20:00 +18°C° 0 mm 4 mps 748 mmHg 56%
    21:00 +15°C° 0 mm 4 mps 748 mmHg 64%
    22:00 +13°C° 0 mm 4 mps 749 mmHg 71%
    23:00 +12°C° 0 mm 4 mps 749 mmHg 74%

    20 November, Wednesday

    Time Temperature Precipitation Wind Pressure Humidity
    00:00 +11°C° 0 mm 3 mps 749 mmHg 76%
    01:00 +10°C° 0 mm 3 mps 748 mmHg 79%
    02:00 +10°C° 0 mm 3 mps 748 mmHg 81%
    03:00 +9°C° 0 mm 2 mps 748 mmHg 83%
    04:00 +9°C° 0 mm 2 mps 748 mmHg 85%
    05:00 +12°C° 0 mm 2 mps 748 mmHg 77%
    06:00 +14°C° 0 mm 2 mps 748 mmHg 69%
    07:00 +17°C° 0 mm 2 mps 748 mmHg 61%
    08:00 +20°C° 0 mm 3 mps 748 mmHg 51%
    09:00 +23°C° 0 mm 4 mps 748 mmHg 41%
    10:00 +27°C° 0 mm 5 mps 748 mmHg 31%
    11:00 +29°C° 0 mm 4 mps 747 mmHg 26%
    12:00 +32°C° 0 mm 4 mps 747 mmHg 21%
    13:00 +34°C° 0 mm 3 mps 747 mmHg 16%
    14:00 +35°C° 0 mm 3 mps 747 mmHg 16%
    15:00 +36°C° 0 mm 3 mps 746 mmHg 15%
    16:00 +37°C° 0 mm 3 mps 745 mmHg 14%
    17:00 +34°C° 0 mm 4 mps 745 mmHg 19%
    18:00 +32°C° 0 mm 4 mps 745 mmHg 23%
    19:00 +28°C° 0 mm 4 mps 745 mmHg 28%
    20:00 +27°C° 0 mm 5 mps 745 mmHg 29%
    21:00 +27°C° 0 mm 6 mps 745 mmHg 30%
    22:00 +26°C° 0 mm 6 mps 745 mmHg 30%
    23:00 +24°C° 0 mm 6 mps 745 mmHg 31%

    21 November, Thursday

    Time Temperature Precipitation Wind Pressure Humidity
    00:00 +24°C° 0 mm 6 mps 745 mmHg 32%
    01:00 +23°C° 0 mm 5 mps 745 mmHg 33%
    02:00 +23°C° 0 mm 5 mps 744 mmHg 33%
    03:00 +23°C° 0 mm 6 mps 744 mmHg 33%
    04:00 +23°C° 0 mm 6 mps 744 mmHg 33%
    05:00 +22°C° 0.2 mm 6 mps 744 mmHg 38%
    06:00 +22°C° 0.2 mm 7 mps 745 mmHg 44%
    07:00 +21°C° 0.2 mm 7 mps 745 mmHg 50%
    08:00 +26°C° 0 mm 7 mps 746 mmHg 40%
    09:00 +30°C° 0 mm 6 mps 746 mmHg 31%
    10:00 +35°C° 0 mm 6 mps 746 mmHg 21%
    11:00 +39°C° 0 mm 6 mps 746 mmHg 18%
    12:00 +41°C° 0 mm 7 mps 745 mmHg 14%
    13:00 +45°C° 0 mm 8 mps 745 mmHg 11%
    14:00 +44°C° 0 mm 8 mps 745 mmHg 12%
    15:00 +43°C° 0 mm 8 mps 744 mmHg 13%
    16:00 +42°C° 0 mm 9 mps 744 mmHg 15%
    17:00 +35°C° 0 mm 8 mps 744 mmHg 27%
    18:00 +29°C° 0 mm 7 mps 745 mmHg 40%
    19:00 +22°C° 0 mm 6 mps 745 mmHg 52%
    20:00 +20°C° 0.1 mm 5 mps 746 mmHg 58%
    21:00 +17°C° 0.1 mm 5 mps 746 mmHg 64%
    22:00 +15°C° 0.1 mm 4 mps 746 mmHg 70%
    23:00 +15°C° 0.1 mm 4 mps 746 mmHg 72%

    22 November, Friday

    Time Temperature Precipitation Wind Pressure Humidity
    00:00 +14°C° 0.1 mm 4 mps 746 mmHg 74%
    01:00 +14°C° 0.1 mm 4 mps 746 mmHg 76%
    02:00 +14°C° 0.1 mm 4 mps 746 mmHg 78%
    03:00 +14°C° 0.1 mm 4 mps 746 mmHg 80%
    04:00 +14°C° 0.1 mm 3 mps 746 mmHg 82%
    05:00 +16°C° 0 mm 3 mps 746 mmHg 79%
    06:00 +16°C° 0 mm 2 mps 746 mmHg 77%
    07:00 +17°C° 0 mm 2 mps 747 mmHg 75%
    08:00 +20°C° 0 mm 2 mps 747 mmHg 66%
    09:00 +24°C° 0 mm 1 mps 746 mmHg 56%
    10:00 +27°C° 0 mm 1 mps 746 mmHg 47%
    11:00 +29°C° 0 mm 1 mps 746 mmHg 40%
    12:00 +31°C° 0 mm 1 mps 745 mmHg 34%
    13:00 +35°C° 0 mm 2 mps 745 mmHg 28%
    14:00 +35°C° 0.1 mm 2 mps 744 mmHg 27%
    15:00 +36°C° 0.1 mm 2 mps 744 mmHg 25%
    16:00 +36°C° 0.1 mm 3 mps 743 mmHg 23%
    17:00 +34°C° 0 mm 3 mps 743 mmHg 27%
    18:00 +31°C° 0 mm 3 mps 743 mmHg 30%
    19:00 +29°C° 0 mm 3 mps 743 mmHg 34%
    20:00 +26°C° 0 mm 3 mps 743 mmHg 42%
    21:00 +22°C° 0 mm 4 mps 744 mmHg 50%
    22:00 +17°C° 0 mm 5 mps 744 mmHg 58%
    23:00 +17°C° 0 mm 4 mps 744 mmHg 61%
    Show more